Weather observations for the past three days for
Kivalina, Kivalina Airport
Metric (Imperial)
Date Time (akdt) Wind (kph) Vis. (km) Weather Sky Cond. Temperature (ºC) Relative Humidity Wind Chill (°C) Heat Index (°C) Pressure Precipitation (cm)
Air Dwpt 6 hour altimeter (cm) sea level (mb) 1 hr 3 hr 6 hr
Max. Min.
05 18:53 W 26 16.09 Overcast OVC015 -5.6 -7.8 85% -13 76.02 1013.4
05 17:53 W 26 16.09 A Few Clouds FEW016 -5.6 -7.8 85% -13 76 1013.2
05 16:53 NW 28 16.09 A Few Clouds FEW008 -5.6 -7.2 89% -13 76 1013.1
05 15:53 W 22 16.09 Fair CLR -5 -7.2 -5 -7.2 85% -11 76 1013.0
05 14:53 W 26 16.09 Fair CLR -5.6 -7.2 89% -13 76 1013.2
05 13:53 W 24 16.09 A Few Clouds FEW006 -6.1 -7.8 88% -13 76 1013.1
05 12:53 W 20 16.09 A Few Clouds FEW006 -6.1 -8.3 85% -12 76 1013.1
05 11:53 W 20 16.09 Mostly Cloudy BKN006 -6.7 -8.3 89% -13 76 1013.1
05 10:53 NW 19 16.09 Overcast OVC005 -7.2 -8.3 92% -14 76 1013.3
05 09:53 NW 17 16.09 Overcast OVC005 -6.7 -7.8 -5.6 -7.2 92% -13 76.02 1013.4
05 08:53 NW 19 16.09 Overcast OVC006 -6.7 -7.8 92% -13 76.02 1013.5
05 07:53 N 15 16.09 Overcast OVC008 -6.1 -7.8 88% -11 76.02 1013.4
05 06:53 N 11 16.09 Overcast OVC008 -5.6 -7.2 89% -10 76.02 1013.6
05 05:53 NW 17 16.09 Overcast OVC006 -6.1 -7.2 92% -12 76.05 1013.8
05 04:53 NW 11 16.09 Overcast OVC007 -6.1 -7.2 92% -10 76.02 1013.7
05 03:53 NW 15 16.09 Overcast OVC008 -5.6 -7.2 -3.9 -5.6 89% -11 76.05 1014.0
05 02:53 NW 11 16.09 Overcast OVC008 -5 -6.7 88% -9 76.07 1014.3
05 01:53 NW 13 16.09 Overcast OVC008 -5 -6.7 88% -10 76.12 1014.8
05 00:53 W 9 16.09 Overcast OVC009 -4.4 -6.7 84% -8 76.15 1015.2
04 23:53 W 9 16.09 Overcast OVC011 -3.9 -6.1 85% -7 76.17 1015.7
04 22:53 NW 7 16.09 Overcast OVC011 -3.9 -6.1 85% -7 76.2 1015.9
04 21:53 NW 6 16.09 Overcast OVC013 -3.3 -6.1 -2.2 -3.3 81% 76.2 1016.0
04 20:53 W 11 16.09 Overcast OVC014 -3.3 -6.1 81% -7 76.23 1016.3
04 19:53 W 11 16.09 Overcast OVC016 -2.8 -5.6 81% -7 76.25 1016.4
04 18:53 SW 9 16.09 Overcast OVC017 -2.8 -5.6 81% -6 76.28 1016.9
04 17:53 SW 7 16.09 Overcast OVC019 -2.8 -4.4 89% -5 76.33 1017.4
04 16:53 SW 7 16.09 Overcast OVC021 -3.3 -5 88% -6 76.35 1017.9
04 15:53 S 7 16.09 Overcast SCT021 OVC030 -3.3 -6.1 -3.3 -4.4 81% -6 76.38 1018.2
04 14:53 W 7 16.09 Fair CLR -3.9 -6.7 81% -7 76.4 1018.6
04 13:53 SW 7 16.09 A Few Clouds FEW027 -3.9 -6.7 81% -7 76.43 1019.0
04 12:53 W 7 16.09 Overcast BKN036 OVC046 -3.9 -6.7 81% -7 76.43 1019.0
04 11:53 NW 7 6.44 Overcast with Haze BKN038 OVC046 -4.4 -7.2 81% -7 76.43 1019.0
04 10:53 NW 7 16.09 Overcast SCT022 BKN032 OVC060 -4.4 -6.7 84% -7 76.43 1019.1
04 09:53 NW 15 14.48 Overcast BKN007 BKN029 OVC042 -4.4 -6.1 -2.8 -4.4 88% -9 76.45 1019.1
04 08:53 W 11 16.09 Overcast BKN007 OVC055 -4.4 -5.6 91% -8 76.43 1018.8
04 07:53 W 20 16.09 Overcast OVC007 -3.9 -5 92% -10 76.4 1018.6
04 06:53 SW 13 16.09 Overcast BKN014 OVC050 -3.3 -5 88% -8 76.38 1018.4
04 05:53 SW 15 16.09 Overcast BKN014 OVC055 -3.3 -4.4 92% -8 76.38 1018.2
04 04:53 S 17 16.09 Overcast FEW009 SCT032 OVC050 -2.8 -3.9 92% -8 76.35 1018.0
04 03:53 S 13 16.09 Overcast BKN010 OVC049 -3.3 -4.4 -2.2 -3.3 92% -8 76.35 1017.9
04 02:53 S 19 16.09 Mostly Cloudy FEW045 BKN070 -2.8 -4.4 89% -8 76.33 1017.6
04 01:53 S 17 16.09 Overcast SCT041 OVC070 -2.2 -3.9 88% -7 76.33 1017.6
04 00:53 S 20 16.09 Overcast OVC042 -2.2 -3.3 92% -8 76.33 1017.5
03 23:53 S 26 16.09 Overcast OVC037 -2.2 -3.3 92% -8 76.33 1017.4
03 22:53 S 30 16.09 Overcast BKN038 OVC046 -2.2 -3.9 88% -9 76.3 1017.2
03 21:53 S 28 16.09 Overcast BKN018 OVC035 -2.2 -3.9 -2.2 -2.2 88% -9 76.3 1017.3
03 20:53 S 30 16.09 Overcast SCT026 OVC037 -2.2 -4.4 85% -9 76.33 1017.4
03 19:53 S 33 9.66 Fog/Mist and Breezy OVC019 -2.2 -4.4 85% -9 76.3 1017.3
03 18:53 S 35 8.05 Fog/Mist and Breezy OVC020 -2.2 -3.9 88% -9 76.3 1017.1
03 17:53 S 30 14.48 Overcast SCT028 OVC036 -2.2 -3.9 88% -9 76.3 1017.2
03 16:53 S 28 8.05 Fog/Mist BKN034 OVC042 -2.2 -3.9 88% -9 76.3 1017.3
03 15:53 S 28 8.05 Fog/Mist SCT011 OVC024 -2.2 -3.9 -2.2 -4.4 88% -9 76.3 1017.4
03 14:53 S 31 16.09 Overcast OVC010 -2.8 -3.9 92% -10 76.3 1017.2
03 13:53 S 30 8.05 Fog/Mist BKN009 OVC014 -3.3 -4.4 92% -10 76.3 1017.1
03 12:53 S 20 11.27 Overcast BKN014 OVC020 -3.3 -5 88% -9 76.28 1017.0
03 11:53 S 28 16.09 Overcast SCT015 BKN023 OVC033 -3.3 -5.6 84% -10 76.25 1016.5
03 10:53 S 26 16.09 Overcast OVC033 -3.9 -6.7 81% -11 76.2 1015.9
03 09:53 S 26 16.09 Overcast FEW017 BKN023 OVC029 -4.4 -6.7 -4.4 -6.1 84% -11 76.17 1015.4
03 08:53 SW 19 16.09 Overcast OVC017 -5.6 -8.3 82% -12 76.12 1015.0
03 07:53 SW 31 16.09 Overcast OVC016 -6.1 -8.9 81% -14 76.07 1014.3
03 06:53 SW 26 16.09 Overcast OVC017 -6.1 -8.9 81% -13 76.02 1013.6
03 05:53 SW 28 16.09 Overcast OVC015 -6.1 -8.3 85% -14 76 1013.1
03 04:53 SW 28 16.09 Overcast OVC017 -5.6 -8.3 82% -13 75.95 1012.5
03 02:53 SW 24 6.44 Fog/Mist OVC010 -5.6 -6.7 92% -12 75.84 1011.2
03 01:53 SW 22 16.09 Overcast OVC011 -5.6 -6.7 92% -12 75.79 1010.6
03 00:53 SW 24 11.27 Overcast OVC010 -5 -6.7 88% -12 75.74 1009.8
02 23:53 SW 20 9.66 Fog/Mist OVC009 -5 -6.1 92% -11 75.69 1009.1
02 22:53 SW 24 16.09 Overcast OVC008 -5 -6.1 92% -12 75.62 1008.1
02 21:53 SW 26 12.87 Overcast OVC008 -5 -6.1 -2.8 -5 92% -12 75.57 1007.5
02 20:53 SW 24 16.09 Overcast OVC009 -4.4 -6.1 88% -11 75.51 1006.6
02 19:53 SW 22 9.66 Fog/Mist OVC009 -3.9 -5.6 88% -10 75.44 1005.8
Date Time (akdt) Wind (kph) Vis. (km) Weather Sky Cond. Air Dwpt Max. Min. Relative Humidity Wind Chill (°C) Heat Index (°C) altimeter (cm) sea level (mb) 1 hr 3 hr 6 hr
6 hour
Temperature (ºC) Pressure Precipitation (cm)